Regional Weather Roundup
Issued by NWS Cleveland, OH

Home | Current Version | Previous Version | Graphics & Text | Print | Product List | Glossary On
Versions: 1 2 3 4 5 6 7 8 9 10 11 12 13 14 15 16 17 18 19 20 21 22 23 24 25 26 27 28 29 30 31 32 33 34 35 36 37 38 39 40 41 42 43 44 45 46 47 48 49 50
000
ASUS41 KCLE 302012
RWRCLE
OHIO REGIONAL WEATHER ROUNDUP
NATIONAL WEATHER SERVICE WILMINGTON, OH
400 PM EDT FRI SEP 30 2016

NOTE: "FAIR" INDICATES FEW OR NO CLOUDS BELOW 12,000 FEET WITH NO
SIGNIFICANT WEATHER AND/OR OBSTRUCTIONS TO VISIBILITY.

OHZ001>008-015>018-024>027-034-035-043-044-302100-
   NORTHWEST OHIO

CITY           SKY/WX    TMP DP  RH WIND       PRES   REMARKS
DEFIANCE       CLOUDY    64  59  83 NE8       30.05S
FINDLAY        CLOUDY    65  56  72 E9        30.04R
TOLEDO EXPRESS CLOUDY    62  62 100 E7        30.07R
TOLEDO EXEC    CLOUDY    63  61  93 E8        30.08F
LIMA           RAIN      60  60 100 E5        30.05R FOG
$$

OHZ009>014-019>023-028>033-038-089-302100-
   NORTHEAST OHIO

CITY           SKY/WX    TMP DP  RH WIND       PRES   REMARKS
CLE-HOPKINS    LGT RAIN  63  58  83 NE12      30.09F
CLE-LAKEFRONT  CLOUDY    63  58  83 E9        30.08F HAZE
CUY CO. ARPT   CLOUDY    64  59  82 E8        30.10F
LORAIN-ELYRIA  LGT RAIN  60  57  89 E8        30.08S
ASHTABULA      CLOUDY    63  59  87 SE12G18   30.13F
AKRON-CANTON   LGT RAIN  59  56  89 E14       30.07F FOG
WOOSTER        LGT RAIN  60  57  89 E9        30.08R
MANSFIELD      CLOUDY    61  58  90 E10       30.04F
YOUNGSTOWN     CLOUDY    61  55  81 E12G21    30.12F
$$

OHZ042-051>053-060>062-070>072-077>081-302100-
  SOUTHWEST OHIO

CITY           SKY/WX    TMP DP  RH WIND       PRES   REMARKS
CINC-COVINGTON PTSUNNY   65  55  70 S5        29.99F
CINC-LUNKEN    PTSUNNY   66  58  75 CALM      30.00F
HAMILTON       FAIR      68  57  68 VRB3      30.00F
DAYTON         CLOUDY    61  58  90 E12       30.01S
WRIGHT-PAT AFB LGT RAIN  63  62  96 E12       29.99F
DAYTON GENERAL CLOUDY    62  57  83 SW6       29.99F
WILMINGTON     CLOUDY    65  59  81 W6        30.00F
$$

OHZ036-037-039>041-045>050-054>059-063>069-073>076-082>088-302100-
  CENTRAL AND SOUTHEAST OHIO

CITY           SKY/WX    TMP DP  RH WIND       PRES   REMARKS
COLUMBUS       LGT RAIN  63  63 100 NE8       29.99F
OSU AIRPORT    TSTM      63  61  93 NE6       30.00R
BOLTON FIELD   CLOUDY    63  61  94 NE8       30.01F
RICKENBACK AFB CLOUDY    61  61 100 E3        29.99S
NEWARK         CLOUDY    66  59  78 NE7       29.99F
MARION         CLOUDY    62  57  83 E6        30.04F
LANCASTER      PTSUNNY   65  62  90 N7        30.00S
ZANESVILLE     CLOUDY    68  59  73 E12       30.01F
NEW PHILLY     CLOUDY    63  61  93 VRB6      30.04F
$$




USA.gov is the U.S. government's official web portal to all federal, state and local government web resources and services.